Regional Weather Roundup
Issued by NWS Jackson, KY

Home | Current Version | Previous Version | Graphics & Text | Print | Product List | Glossary On
Versions: 1 2 3 4 5 6 7 8 9 10 11 12 13 14 15 16 17 18 19 20 21 22 23 24 25 26 27 28 29 30 31 32 33 34 35 36 37 38 39 40 41 42 43 44 45 46 47 48 49 50
000
ASUS43 KJKL 171605
RWRJKL

EAST KENTUCKY HOURLY WEATHER ROUNDUP
NATIONAL WEATHER SERVICE JACKSON KY
1200 PM EDT THU APR 17 2014

NOTE: "FAIR" INDICATES FEW OR NO CLOUDS BELOW 12,000 FEET WITH
NO SIGNIFICANT WEATHER AND/OR OBSTRUCTIONS TO VISIBILITY.

* THESE REPORTS ARE NOT UNDER NWS QUALITY CONTROL AND MAY NOT
  REPORT WEATHER SUCH AS PRECIPITATION AND FOG.

KYZ079-080-083-085-087-088-110-112-115-119-120-171700
...EASTERN KENTUCKY...

CITY           SKY/WX    TMP DP  RH WIND       PRES   REMARKS
JACKSON        SUNNY     59  23  25 VRB3      30.42S
LONDON         SUNNY     59  27  29 S6        30.41S
SOMERSET*      SUNNY     57  28  33 SE3       30.42S
MONTICELLO*    SUNNY     60  29  31 VRB3      30.41S
MIDDLESBORO*   SUNNY     57  31  36 CALM      30.43S
HARLAN APT*    SUNNY     59  21  23 NE5       30.41F
BLACK MTN*       N/A     52  23  32 NE3         N/A
PIKEVILLE APT* SUNNY     57  25  28 CALM      30.42F
BIG SANDY*     SUNNY     59  28  30 S6        30.43F
$$

KYZ035-036-041-042-044-050-067-078-099-171700
...CENTRAL KENTUCKY...

CITY           SKY/WX    TMP DP  RH WIND       PRES   REMARKS
MT STERLING*   SUNNY     57  32  38 SW9       30.41S
FLEMING/MASON* SUNNY     60  33  36 S10G17    30.40F
DANVILLE*      SUNNY     59  32  36 S10       30.40S
LEXINGTON      SUNNY     60  32  34 SW13      30.39R
FRANKFORT      SUNNY     61  33  35 MISG      30.37S
$$

KYZ091>093-OHZ055-061-077-WVZ005-015-034-035-042-171700
...SOUTHERN OHIO/WEST VIRGINIA...

CITY           SKY/WX    TMP DP  RH WIND       PRES   REMARKS
COVINGTON      MOSUNNY   60  34  37 S12G17    30.36R
COLUMBUS       MOSUNNY   59  30  33 SW10      30.38S
DAYTON         MOSUNNY   59  35  40 SW13G22   30.35R
WILMINGTON     SUNNY     59  32  36 S14G23    30.36R
HUNTINGTON     MOSUNNY   59  26  28 VRB5      30.42F
CHARLESTON     MOSUNNY   59  22  24 SE6       30.43F
PINEVILLE*     SUNNY     57  27  32 MISG      30.50F
BECKLEY        SUNNY     49  22  34 E12       30.47R
BLUEFIELD      MOSUNNY   50  19  29 VRB6      30.47S
$$

VAZ002-007-008-TNZ017-027-036-066-071-171700
...SOUTHWEST VIRGINIA/EAST TENNESSEE...

CITY           SKY/WX    TMP DP  RH WIND       PRES   REMARKS
WISE*          SUNNY     54  19  26 SE6       30.43F
ABINGDON*      SUNNY     54  24  31 E13       30.44F
BRISTOL        MOSUNNY   56  23  27 VRB7      30.43F
KNOXVILLE      MOSUNNY   56  33  42 CALM      30.42S
OAK RIDGE      SUNNY     58  32  37 N5        30.43S
CROSSVILLE     SUNNY     54  24  31 SE10      30.41R
NASHVILLE      MOSUNNY   62  33  33 S14       30.39S
$$

...KEY TO REMARKS...
VSB - VISIBILITY IN MILES
WCI - WIND CHILL INDEX
HX  - HEAT INDEX

$$



USA.gov is the U.S. government's official web portal to all federal, state and local government web resources and services.